Time,TemperatureF,DewpointF,PressureIn,WindDirection,WindDirectionDegrees,WindSpeedMPH,WindSpeedGustMPH,Humidity,HourlyPrecipIn,Conditions,Clouds,dailyrainin,SoftwareType,DateUTC
2013-04-12 00:03:00,42.0,35.0,29.70,NW,304,3.0,3.0,75,0.00,,,0.69,,2013-04-12 05:03:00,
2013-04-12 00:12:00,42.0,35.0,29.70,NW,304,3.0,3.0,75,0.00,,,0.69,,2013-04-12 05:12:00,
2013-04-12 00:22:00,42.0,34.0,29.70,NW,304,4.0,4.0,74,0.00,,,0.64,,2013-04-12 05:22:00,
2013-04-12 00:32:00,42.0,34.0,29.72,West,277,5.0,5.0,72,0.00,,,0.62,,2013-04-12 05:32:00,
2013-04-12 00:42:00,42.0,34.0,29.72,West,277,5.0,5.0,72,0.00,,,0.62,,2013-04-12 05:42:00,
2013-04-12 00:52:00,41.0,33.0,29.72,WNW,297,3.0,3.0,72,0.00,,,0.62,,2013-04-12 05:52:00,
2013-04-12 01:02:00,41.0,33.0,29.72,WNW,290,1.0,1.0,72,0.00,,,0.60,,2013-04-12 06:02:00,
2013-04-12 01:12:00,41.0,33.0,29.72,WNW,290,1.0,1.0,72,0.00,,,0.60,,2013-04-12 06:12:00,
2013-04-12 01:22:00,41.0,33.0,29.72,WNW,289,0.0,3.0,73,0.00,,,0.60,,2013-04-12 06:22:00,
2013-04-12 01:32:00,40.0,31.0,29.72,West,275,4.0,6.0,71,0.00,,,0.55,,2013-04-12 06:32:00,
2013-04-12 01:42:00,40.0,31.0,29.72,West,275,4.0,6.0,71,0.00,,,0.55,,2013-04-12 06:42:00,
2013-04-12 01:52:00,40.0,31.0,29.72,West,261,4.0,9.0,70,0.00,,,0.52,,2013-04-12 06:52:00,
2013-04-12 02:01:00,41.0,32.0,29.72,WNW,288,3.0,5.0,70,0.00,,,0.35,,2013-04-12 07:01:00,
2013-04-12 02:11:00,41.0,32.0,29.72,WNW,288,3.0,5.0,70,0.00,,,0.35,,2013-04-12 07:11:00,
2013-04-12 02:22:00,40.0,30.0,29.72,West,262,3.0,6.0,68,0.00,,,0.32,,2013-04-12 07:22:00,
2013-04-12 02:32:00,40.0,31.0,29.72,WNW,285,0.0,0.0,70,0.00,,,0.27,,2013-04-12 07:32:00,
2013-04-12 02:42:00,40.0,31.0,29.72,WNW,285,0.0,0.0,70,0.00,,,0.27,,2013-04-12 07:42:00,
2013-04-12 02:52:00,40.0,31.0,29.72,WNW,285,3.0,3.0,70,0.00,,,0.25,,2013-04-12 07:52:00,
2013-04-12 03:03:00,39.0,30.0,29.71,WNW,285,0.0,0.0,71,0.00,,,0.19,,2013-04-12 08:03:00,
2013-04-12 03:12:00,39.0,30.0,29.71,WNW,285,0.0,0.0,71,0.00,,,0.19,,2013-04-12 08:12:00,
2013-04-12 03:22:00,39.0,31.0,29.71,WNW,285,0.0,0.0,72,0.00,,,0.17,,2013-04-12 08:22:00,
2013-04-12 03:32:00,38.0,31.0,29.72,WNW,285,0.0,1.0,76,0.00,,,0.13,,2013-04-12 08:32:00,
2013-04-12 03:42:00,38.0,31.0,29.72,WNW,285,0.0,1.0,76,0.00,,,0.13,,2013-04-12 08:42:00,
2013-04-12 03:52:00,38.0,31.0,29.72,WNW,285,0.0,1.0,76,0.00,,,0.13,,2013-04-12 08:52:00,
2013-04-12 04:02:00,37.0,32.0,29.73,WNW,285,0.0,0.0,81,0.00,,,0.08,,2013-04-12 09:02:00,
2013-04-12 04:12:00,37.0,32.0,29.73,WNW,285,0.0,0.0,81,0.00,,,0.08,,2013-04-12 09:12:00,
2013-04-12 04:22:00,36.0,31.0,29.73,WNW,285,0.0,0.0,82,0.00,,,0.08,,2013-04-12 09:22:00,
2013-04-12 04:33:00,36.0,32.0,29.74,WNW,285,0.0,0.0,84,0.00,,,0.08,,2013-04-12 09:33:00,
2013-04-12 04:43:00,36.0,32.0,29.74,WNW,285,0.0,0.0,84,0.00,,,0.08,,2013-04-12 09:43:00,
2013-04-12 04:52:00,36.0,32.0,29.74,WNW,285,0.0,0.0,85,0.00,,,0.08,,2013-04-12 09:52:00,
2013-04-12 05:03:00,36.0,32.0,29.74,WNW,285,0.0,0.0,85,0.00,,,0.08,,2013-04-12 10:03:00,
2013-04-12 05:12:00,35.0,31.0,29.75,SSE,157,1.0,1.0,86,0.00,,,0.08,,2013-04-12 10:12:00,
2013-04-12 05:23:00,35.0,31.0,29.75,SSE,157,1.0,1.0,86,0.00,,,0.08,,2013-04-12 10:23:00,
2013-04-12 05:34:00,36.0,33.0,29.76,SSE,157,0.0,1.0,88,0.00,,,0.08,,2013-04-12 10:34:00,
2013-04-12 05:42:00,36.0,33.0,29.76,SSE,157,0.0,1.0,88,0.00,,,0.08,,2013-04-12 10:42:00,
2013-04-12 05:52:00,36.0,33.0,29.76,SSE,157,3.0,3.0,88,0.00,,,0.08,,2013-04-12 10:52:00,
2013-04-12 06:02:00,36.0,33.0,29.77,SSE,157,0.0,0.0,87,0.00,,,0.08,,2013-04-12 11:02:00,
2013-04-12 06:12:00,36.0,33.0,29.77,SSE,157,0.0,0.0,87,0.00,,,0.08,,2013-04-12 11:12:00,
2013-04-12 06:22:00,36.0,32.0,29.77,SSE,157,0.0,2.0,86,0.00,,,0.08,,2013-04-12 11:22:00,
2013-04-12 06:32:00,36.0,32.0,29.77,SSE,157,2.0,3.0,85,0.00,,,0.08,,2013-04-12 11:32:00,
2013-04-12 06:42:00,36.0,32.0,29.77,SSE,157,2.0,3.0,85,0.00,,,0.08,,2013-04-12 11:42:00,
2013-04-12 06:52:00,36.0,32.0,29.77,SSW,198,0.0,1.0,85,0.00,,,0.08,,2013-04-12 11:52:00,
2013-04-12 07:02:00,36.0,32.0,29.78,SSW,198,0.0,1.0,85,0.00,,,0.08,,2013-04-12 12:02:00,
2013-04-12 07:13:00,36.0,32.0,29.78,SSW,198,0.0,1.0,85,0.00,,,0.08,,2013-04-12 12:13:00,
2013-04-12 07:22:00,37.0,33.0,29.78,SSW,198,1.0,2.0,85,0.00,,,0.08,,2013-04-12 12:22:00,
2013-04-12 07:33:00,37.0,33.0,29.79,SW,214,3.0,3.0,85,0.00,,,0.08,,2013-04-12 12:33:00,
2013-04-12 07:42:00,37.0,33.0,29.79,SW,214,3.0,3.0,85,0.00,,,0.08,,2013-04-12 12:42:00,
2013-04-12 07:52:00,38.0,34.0,29.79,SSW,202,1.0,3.0,84,0.00,,,0.08,,2013-04-12 12:52:00,
2013-04-12 08:03:00,40.0,35.0,29.79,West,268,3.0,5.0,82,0.00,,,0.08,,2013-04-12 13:03:00,
2013-04-12 08:12:00,40.0,35.0,29.79,West,268,3.0,5.0,82,0.00,,,0.08,,2013-04-12 13:12:00,
2013-04-12 08:22:00,41.0,35.0,29.79,West,268,2.0,10.0,80,0.00,,,0.08,,2013-04-12 13:22:00,
2013-04-12 08:32:00,42.0,34.0,29.79,WSW,238,5.0,9.0,74,0.00,,,0.08,,2013-04-12 13:32:00,
2013-04-12 08:42:00,42.0,34.0,29.79,WSW,238,5.0,9.0,74,0.00,,,0.08,,2013-04-12 13:42:00,
2013-04-12 08:52:00,42.0,35.0,29.79,SSW,213,3.0,5.0,77,0.00,,,0.08,,2013-04-12 13:52:00,
2013-04-12 09:03:00,44.0,35.0,29.79,West,267,2.0,4.0,71,0.00,,,0.08,,2013-04-12 14:03:00,
2013-04-12 09:12:00,44.0,35.0,29.79,West,267,2.0,4.0,71,0.00,,,0.08,,2013-04-12 14:12:00,
2013-04-12 09:22:00,44.0,35.0,29.79,WSW,242,2.0,8.0,70,0.00,,,0.08,,2013-04-12 14:22:00,
2013-04-12 09:32:00,45.0,33.0,29.79,WNW,286,3.0,6.0,63,0.00,,,0.08,,2013-04-12 14:32:00,
2013-04-12 09:42:00,45.0,33.0,29.79,WNW,286,3.0,6.0,63,0.00,,,0.08,,2013-04-12 14:42:00,
2013-04-12 09:52:00,45.0,33.0,29.79,WNW,286,3.0,6.0,63,0.00,,,0.08,,2013-04-12 14:52:00,
2013-04-12 10:02:00,45.0,33.0,29.79,WNW,286,3.0,6.0,63,0.00,,,0.08,,2013-04-12 15:02:00,
2013-04-12 10:12:00,45.0,33.0,29.79,WNW,286,3.0,6.0,63,0.00,,,0.08,,2013-04-12 15:12:00,
2013-04-12 21:53:00,42.0,33.0,29.98,NW,313,0.0,1.0,69,0.00,,,0.00,,2013-04-13 02:53:00,
2013-04-12 22:02:00,41.0,32.0,29.99,NW,313,0.0,0.0,70,0.00,,,0.00,,2013-04-13 03:02:00,
2013-04-12 22:12:00,41.0,32.0,29.99,NW,313,0.0,0.0,70,0.00,,,0.00,,2013-04-13 03:12:00,
2013-04-12 22:22:00,41.0,32.0,29.99,NW,313,0.0,1.0,70,0.00,,,0.00,,2013-04-13 03:22:00,
2013-04-12 22:33:00,41.0,32.0,29.99,NW,313,0.0,0.0,71,0.00,,,0.00,,2013-04-13 03:33:00,
2013-04-12 22:42:00,41.0,32.0,29.99,NW,313,0.0,0.0,71,0.00,,,0.00,,2013-04-13 03:42:00,
2013-04-12 22:53:00,40.0,31.0,29.99,NW,313,0.0,0.0,71,0.00,,,0.00,,2013-04-13 03:53:00,
2013-04-12 23:03:00,40.0,32.0,30.00,NW,313,0.0,0.0,72,0.00,,,0.00,,2013-04-13 04:03:00,
2013-04-12 23:12:00,40.0,32.0,30.00,NW,313,0.0,0.0,72,0.00,,,0.00,,2013-04-13 04:12:00,
2013-04-12 23:23:00,40.0,32.0,30.00,NW,313,0.0,2.0,73,0.00,,,0.00,,2013-04-13 04:23:00,
2013-04-12 23:33:00,39.0,32.0,30.01,NW,313,0.0,0.0,75,0.00,,,0.00,,2013-04-13 04:33:00,
2013-04-12 23:42:00,39.0,32.0,30.01,NW,313,0.0,0.0,75,0.00,,,0.00,,2013-04-13 04:42:00,
2013-04-12 23:53:00,39.0,32.0,30.01,NW,313,1.0,2.0,76,0.00,,,0.00,,2013-04-13 04:53:00,